Location: Pian di Sc�
(43.6333°N, 11.5500°E)
Time: 05:24:25
(UTC+00:00)

Cosmos 1777 Rocket - Visible Passes

Search period start: 26 November 2020 00:00
Search period end: 06 December 2020 00:00
Orbit: 759 x 775 km, 74.0° (Epoch: 25 November)

Date Brightness Start Highest point End Pass type
(mag) Time Alt. Az. Time Alt. Az. Time Alt. Az.
26 Nov 6.2 02:43:12 21° ENE 02:43:12 21° ENE 02:45:55 10° NE visible
26 Nov 4.2 04:23:32 45° WNW 04:23:35 45° WNW 04:28:35 10° N visible
27 Nov 4.9 03:48:08 38° N 03:48:08 38° N 03:51:22 10° NNE visible
27 Nov 5.7 05:28:28 12° WNW 05:29:08 12° NW 05:31:08 10° NNW visible
28 Nov 6.0 03:12:24 20° NNE 03:12:24 20° NNE 03:13:58 10° NNE visible
28 Nov 5.6 04:52:42 17° NW 04:52:42 17° NW 04:55:00 10° N visible
29 Nov 5.8 04:16:44 17° N 04:16:44 17° N 04:18:12 10° N visible
30 Nov 6.3 03:40:38 13° N 03:40:38 13° N 03:41:10 10° N visible
